User: anonymous   Login
Location: Walnut Point State Park
(39.6958°N, 88.0345°W)
Time: 15:07:03
(UTC-05:00)
Language:

Iridium 75 - Orbit

View from above orbital plane
View from above orbital plane
View from above satellite
View from above satellite

Ground track
Ground track

The orbit data is extracted from the following two-line orbital elements,

1 25346U 98032E   16149.17038106  .00000157  00000-0  49052-4 0  9996
2 25346  86.3982  25.0701 0002169  87.5277  25.3283 14.34216504944489
Epoch (UTC): 28 May 2016 04:05:20
Eccentricity: 0.0002169
inclination: 86.3982°
perigee height: 776 km
apogee height: 779 km
right ascension of ascending node: 25.0701°
argument of perigee: 87.5277°
revolutions per day: 14.34216504
mean anomaly at epoch: 25.3283°
orbit number at epoch: 94448

The dashed part of the orbit path shows where the satellite is in the earth's shadow,  

DLR